ATLAS 5 CENTAUR DEB, 44011

Orbit data source: Space-Track

ATLAS 5 CENTAUR DEB, 44011 is space debris in HEO originally from a launch on Wed, 17 Sep 2014 UTC launched from the Air Force Eastern Test Range (AFETR). Debris objects in space refer to the collection of defunct objects orbiting the Earth. Examples of debris include non-operational satellites, rocket bodies, and fragments generated from explosions, collisions, or faulty payload assembly.

Not visible in the next 10 days
Identifier
44011, 2014-055BS
Orbit
HEO
Country
Flag of USUS
Related business
Flag of USUnited Launch Alliance/Lockheed Martin (US)
Manufacturer
Unknown
Mission
Spacecraft
Bus & Motor
Unknown
Mass
Unknown
Launch date (UTC)
2014-09-17 (11 years ago)
Launch vehicle
Unknown
Launch site
Air Force Eastern Test Range (AFETR)
Object type
Payload
Rocket body
Debris
Shape & HBR
Unknown shape, 1.1 m
Radar Cross Section
Medium (>0.1 m² and <1 m²)

Expand to show TLE details & history
Last TLE update: 4 months ago

TLE from 4 months ago
0 ATLAS 5 CENTAUR DEB
1 44011U 14055BS  25224.15971720 -.00000405  00000-0  00000+0 0  9991
2 44011  21.2837  94.6142 5197300 261.3078  39.0999  2.01721255 50451
Epoch: 2025-08-12T03:49Z
TLE epoch observation values (Epoch: 2025-08-12T03:49:59.566Z)
Latitude
0.00008°
Longitude
76.35658°
Altitude
14,606.087 km
Speed
4.788 km/s
True Right ascension
06h 18m 50s
True Declination
0° 00' 00"
Sunlit
Object was in daylight at epoch
Visualization orbit readout
Latitude
Unknown
Longitude
Unknown
Altitude
Unknown
Speed
Unknown
Apparent Right ascension
Unknown
Apparent Declination
Unknown
Sunlit
N/A
Visualization observer readout
Local Sidereal Time
05:05:25
Azimuth
Unknown
Elevation
Unknown
Doppler factor
Unknown
Orbital elements
Apogee altitude
33,835.121 km
Perigee altitude
6,330.187 km
Semi-major axis
26,460.791 km
Eccentricity
0.51973
Inclination
21.2837°
RAAN
94.6142°
Arg. of periapsis
261.3078°
True anomaly
98.65343°
Mean anomaly
39.0999°
Eccentric anomaly
66.38441°
Mean motion
0.50424 °/min
Orbital period
713.94 mins
BSTAR
0
Loading maneuver chart data...
Computing Atmospheric mass density...

Documentation

Showing up to 5 results
|